Location: Theodore Roosevelt Nature Center
(40.5943°N, 73.5104°W)
Time: 16:04:46
(UTC-04:00)

N. Korean satellite - Visible Passes

Search period start: 17 October 2019 00:00
Search period end: 27 October 2019 00:00
Orbit: 455 x 508 km, 97.2° (Epoch: 16 October)

Date Brightness Start Highest point End Pass type
(mag) Time Alt. Az. Time Alt. Az. Time Alt. Az.
17 Oct 10.0 18:59:07 10° SW 19:01:14 15° W 19:03:21 10° NW visible
18 Oct 8.4 06:24:10 10° NNE 06:27:33 37° E 06:30:57 10° SSE visible
18 Oct 8.7 18:32:42 10° SSW 18:35:48 32° W 18:38:55 10° NNW visible
19 Oct 9.8 05:59:34 10° NE 06:02:09 18° E 06:04:44 10° SE visible
21 Oct 7.1 06:41:27 10° NNE 06:45:04 66° E 06:48:43 10° S visible
21 Oct 9.7 18:50:49 10° SW 18:53:21 19° W 18:55:54 10° NW visible
22 Oct 8.9 06:16:28 10° NE 06:19:43 30° E 06:22:59 10° SSE visible
23 Oct 10.1 05:52:06 10° NE 05:54:17 15° E 05:56:28 10° SE visible
24 Oct 10.3 19:09:41 10° WSW 19:10:56 12° W 19:12:11 10° WNW visible
25 Oct 7.6 06:33:39 10° NNE 06:37:14 52° E 06:40:51 10° S visible
25 Oct 9.3 18:42:35 10° SSW 18:45:26 24° W 18:48:19 10° NW visible
26 Oct 9.3 06:08:47 10° NE 06:11:51 24° E 06:14:55 10° SSE visible
